Location: Clanezzo
(45.7500°N, 9.6000°E)
Time: 04:10:49
(UTC+00:00)

Cosmos 1782 Rocket - Pass Details

Date: 12 May 2021
Orbit: 606 x 633 km, 82.5° (Epoch: 18 June)

Event Time Altitude Azimuth Distance (km) Brightness Sun altitude
Rises 22:25:10 0° 357° (N) 2,930 8.3 -24.8°
Reaches altitude 10° 22:27:33 10° 6° (N) 2,014 7.1 -24.9°
Enters shadow 22:31:37 39° 71° (ENE) 948 4.5 -25.0°
